This demonstration page uses our WeatherBlox Daily Observations layout. Learn more.

Left ArrowRight Arrow

39.29038, -76.61219

Hourly Observations for July 3, 2021

Temp ( °F °C ) Dew Point ( °F °C ) Humidity (%) Winds ( mph kmh ) Pressure ( in mb ) Visibility ( mi km ) Precip ( " mm )
12:54 am 00:54 Clear 66 18.9 53 11.7 63 63 W 9 15 29.78 1009 10 16 N/A
1:54 am 01:54 Clear 65 18.3 53 11.7 66 66 WNW 8 13 29.78 1009 10 16 N/A
2:54 am 02:54 Clear 63 17.2 53 11.7 70 70 WNW 7 11 29.78 1008 10 16 N/A
3:54 am 03:54 Clear 62 16.7 53 11.7 73 73 WNW 7 11 29.78 1008 10 16 N/A
4:54 am 04:54 Clear 62 16.7 53 11.7 73 73 N N/A 29.78 1009 10 16 N/A
5:54 am 05:54 Partly Cloudy 60 15.6 53 11.7 78 78 WNW 5 7 29.78 1008 10 16 N/A
6:54 am 06:54 Partly Cloudy 63 17.2 55 12.8 76 76 WNW 6 9 29.79 1009 10 16 N/A
7:54 am 07:54 Partly Cloudy 67 19.4 55 12.8 66 66 WNW 8 13 29.81 1009 10 16 N/A
8:54 am 08:54 Partly Cloudy 70 21.1 56 13.3 61 61 N 8 13 29.82 1010 10 16 N/A
9:54 am 09:54 Mostly Cloudy 72 22.2 57 13.9 59 59 WNW 9 15 29.81 1010 10 16 N/A
10:54 am 10:54 Mostly Cloudy 76 24.4 57 13.9 52 52 NNW 10 17 29.81 1009 10 16 N/A
11:54 am 11:54 Mostly Cloudy 75 23.9 58 14.4 55 55 NNW 8 13 29.81 1009 10 16 N/A
12:54 pm 12:54 Mostly Cloudy 74 23.3 57 13.9 56 56 NNW 8 13 29.80 1009 10 16 N/A
1:03 pm 13:03 Mostly Cloudy 76 24.4 58 14.4 54 54 NW 6 9 29.79 1009 10 16 N/A
1:54 pm 13:54 Mostly Cloudy 79 26.1 58 14.4 49 49 W 12 19 29.77 1008 10 16 0.00 0.00
2:54 pm 14:54 Mostly Cloudy 79 26.1 57 13.9 47 47 NW 8 13 29.76 1008 10 16 N/A
3:54 pm 15:54 Mostly Cloudy 76 24.4 56 13.3 50 50 NW 12 19 29.76 1008 10 16 N/A
4:54 pm 16:54 Mostly Cloudy 80 26.7 58 14.4 47 47 NW 9 15 29.75 1008 10 16 N/A
5:54 pm 17:54 Mostly Cloudy 78 25.6 57 13.9 48 48 NW 7 11 29.76 1008 10 16 N/A
6:37 pm 18:37 Mostly Cloudy with Light Rain 72 22.2 58 14.4 61 61 NNW 6 9 29.78 1009 8 13 0.01 0.25
6:54 pm 18:54 Mostly Cloudy 73 22.8 61 16.1 66 66 NNE 7 11 29.80 1009 8 13 0.01 0.25
7:54 pm 19:54 Mostly Cloudy 73 22.8 59 15 62 62 NE 5 7 29.81 1009 10 16 N/A
8:54 pm 20:54 Mostly Cloudy 70 21.1 62 16.7 76 76 N N/A 29.83 1010 10 16 N/A
9:54 pm 21:54 Mostly Cloudy with Light Rain 67 19.4 63 17.2 87 87 W 3 6 29.87 1012 8 13 0.01 0.25
10:54 pm 22:54 Cloudy with Light Rain 66 18.9 62 16.7 87 87 WNW 9 15 29.88 1012 7 11 0.03 0.76
11:54 pm 23:54 Mostly Cloudy 66 18.9 62 16.7 87 87 W 5 7 29.87 1011 10 16 0.01 0.25

Powered by AerisWeather